Date String (YYYY-MM-DD hh:mm:ss) UTC,Instrument flags,Ambient pressure (hPa),Sample flow (lpm),Bypass flow (lpm),Sample temperature (°C),Ambient temperature (°C),ASC tube jacket temperature (°C),LED temperature (°C),Box temperature (°C),Sample RH (%),Span deviation,Mass concentration (μg/m³),Mass concentration (μg/m³),Mass concentration (μg/m³)
DateTimeUTC,F1_M11,P_M11,Q1_M11,Q2_M11,T1_M11,T2_M11,T3_M11,T4_M11,T5_M11,U1_M11,ZSPAN_M11,X0_M11,X2_M11,X1_M11
2022-04-21 22:00:00,,0819.1,5.00,0.00,29.7,26.2,00.0,38.6,31.0,14.3,0001.9,0035.02,0010.88,0006.45
2022-04-21 22:01:00,,0819.1,5.00,0.00,29.5,25.2,00.0,38.6,30.8,14.3,0001.8,0034.95,0010.96,0006.46
2022-04-21 22:02:00,,0819.1,4.99,0.00,29.5,25.7,00.0,38.5,30.9,14.3,0000.9,0035.03,0011.03,0006.47
2022-04-21 22:03:00,,0819.1,5.00,0.00,29.4,26.2,00.0,38.5,31.0,14.3,0000.9,0035.81,0011.05,0006.49
2022-04-21 22:04:00,,0819.1,5.01,0.00,29.4,26.7,00.0,38.4,31.1,14.5,0000.6,0036.29,0011.08,0006.49
2022-04-21 22:05:00,,0819.1,5.01,0.00,29.4,27.1,00.0,38.4,31.2,14.4,0000.2,0036.78,0011.17,0006.51
2022-04-21 22:06:00,,0819.1,4.98,0.00,29.5,27.5,00.0,38.4,31.3,14.5,0000.2,0037.72,0011.25,0006.53
2022-04-21 22:07:00,,0819.0,5.00,0.00,29.5,27.8,00.0,38.4,31.3,14.4,0000.3,0038.93,0011.29,0006.53
2022-04-21 22:08:00,,0819.0,5.00,0.00,29.5,28.1,00.0,38.4,31.4,14.5,0001.2,0040.53,0011.23,0006.51
2022-04-21 22:09:00,,0818.9,5.00,0.00,29.6,28.3,00.0,38.4,31.5,14.4,0001.3,0039.34,0011.16,0006.50
2022-04-21 22:10:00,,0818.9,4.99,0.00,29.6,28.5,00.0,38.4,31.5,14.5,0001.7,0036.97,0011.00,0006.49
2022-04-21 22:11:00,,0818.9,5.01,0.00,29.7,28.7,00.0,38.5,31.6,14.5,0001.6,0038.15,0010.93,0006.48
2022-04-21 22:12:00,,0818.9,4.99,0.00,29.7,28.8,00.0,38.5,31.7,14.2,0001.7,0039.01,0010.81,0006.45
2022-04-21 22:13:00,,0819.0,5.00,0.00,29.8,29.0,00.0,38.5,31.7,14.1,0001.7,0040.06,0010.73,0006.43
2022-04-21 22:14:00,,0819.0,4.99,0.00,29.8,29.0,00.0,38.5,31.7,14.1,0002.3,0039.93,0010.62,0006.41
2022-04-21 22:15:00,,0819.0,5.01,0.00,29.8,27.5,00.0,38.6,31.4,14.1,0002.9,0038.58,0010.56,0006.38
2022-04-21 22:16:00,,0819.0,5.01,0.00,29.6,25.5,00.0,38.5,30.9,14.4,0003.3,0037.57,0010.48,0006.35
2022-04-21 22:17:00,,0818.9,4.98,0.00,29.5,25.6,00.0,38.5,30.9,14.5,0003.3,0038.46,0010.43,0006.30
2022-04-21 22:18:00,,0818.9,5.01,0.00,29.5,26.1,00.0,38.5,31.0,14.4,0003.3,0037.52,0010.38,0006.29
2022-04-21 22:19:00,,0819.0,5.00,0.00,29.4,26.5,00.0,38.4,31.1,14.4,0003.2,0037.36,0010.29,0006.29
2022-04-21 22:20:00,,0818.9,5.00,0.00,29.4,27.0,00.0,38.4,31.2,14.4,0003.1,0037.49,0010.20,0006.28
2022-04-21 22:21:00,,0818.9,4.99,0.00,29.5,27.5,00.0,38.4,31.3,14.4,0003.2,0037.54,0010.13,0006.28
2022-04-21 22:22:00,,0818.9,5.01,0.00,29.5,27.8,00.0,38.4,31.4,14.5,0003.3,0037.78,0010.17,0006.29
2022-04-21 22:23:00,,0818.9,4.99,0.00,29.6,28.1,00.0,38.4,31.5,14.4,0002.8,0036.12,0010.18,0006.28
2022-04-21 22:24:00,,0818.9,5.01,0.00,29.6,28.3,00.0,38.4,31.5,14.4,0002.4,0034.98,0010.24,0006.26
2022-04-21 22:25:00,,0818.8,4.99,0.00,29.7,28.5,00.0,38.4,31.5,14.3,0002.1,0034.89,0010.36,0006.26
2022-04-21 22:26:00,,0818.8,5.01,0.00,29.7,28.7,00.0,38.5,31.6,14.3,0001.8,0035.32,0010.41,0006.27
2022-04-21 22:27:00,,0818.8,5.00,0.00,29.8,28.8,00.0,38.5,31.7,14.4,0001.6,0034.84,0010.38,0006.28
2022-04-21 22:28:00,,0818.8,4.99,0.00,29.8,29.0,00.0,38.5,31.7,14.3,0001.3,0036.33,0010.39,0006.29
2022-04-21 22:29:00,,0818.8,4.99,0.00,29.8,28.3,00.0,38.6,31.5,14.2,0000.7,0037.21,0010.46,0006.29
2022-04-21 22:30:00,,0818.8,5.01,0.00,29.7,25.9,00.0,38.5,31.0,14.4,0000.5,0037.24,0010.44,0006.29
2022-04-21 22:31:00,,0818.7,5.01,0.00,29.5,25.3,00.0,38.5,30.8,14.4,0000.9,0038.29,0010.58,0006.31
2022-04-21 22:32:00,,0818.8,4.99,0.00,29.4,25.8,00.0,38.5,30.9,14.8,0000.4,0039.28,0010.69,0006.27
2022-04-21 22:33:00,,0818.7,5.00,0.00,29.4,26.3,00.0,38.4,31.0,14.8,0000.1,0038.36,0010.66,0006.22
2022-04-21 22:34:00,,0818.7,5.01,0.00,29.4,26.8,00.0,38.4,31.1,14.6,0000.2,0037.73,0010.61,0006.22
2022-04-21 22:35:00,,0818.7,4.99,0.00,29.4,27.2,00.0,38.4,31.2,14.7,0000.4,0037.46,0010.56,0006.20
2022-04-21 22:36:00,,0818.7,5.00,0.00,29.5,27.6,00.0,38.4,31.3,14.7,-000.0,0038.31,0010.48,0006.19
2022-04-21 22:37:00,,0818.8,5.00,0.00,29.5,27.9,00.0,38.4,31.4,14.6,-000.3,0037.71,0010.35,0006.16
2022-04-21 22:38:00,,0818.8,4.99,0.00,29.6,28.1,00.0,38.4,31.4,14.6,-000.2,0039.19,0010.24,0006.13
2022-04-21 22:39:00,,0818.7,5.01,0.00,29.6,28.4,00.0,38.4,31.5,14.5,-000.5,0037.58,0010.24,0006.12
2022-04-21 22:40:00,,0818.8,4.99,0.00,29.6,28.6,00.0,38.4,31.6,14.5,-000.5,0036.60,0010.15,0006.10
2022-04-21 22:41:00,,0818.7,5.01,0.00,29.7,28.8,00.0,38.4,31.6,14.5,-000.7,0037.24,0010.17,0006.10
2022-04-21 22:42:00,,0818.7,5.00,0.00,29.8,28.9,00.0,38.5,31.7,14.5,-000.7,0035.17,0010.10,0006.07
2022-04-21 22:43:00,,0818.8,4.99,0.00,29.8,29.1,00.0,38.5,31.7,14.8,-001.0,0033.64,0009.96,0006.09
2022-04-21 22:44:00,,0818.7,5.00,0.00,29.9,29.0,00.0,38.5,31.7,14.4,-000.9,0034.27,0010.02,0006.14
2022-04-21 22:45:00,,0818.6,5.01,0.00,29.8,27.0,00.0,38.6,31.3,14.3,-000.1,0035.93,0010.13,0006.15
2022-04-21 22:46:00,,0818.5,5.00,0.00,29.6,25.3,00.0,38.5,30.9,14.4,0000.0,0036.92,0010.11,0006.17
2022-04-21 22:47:00,,0818.5,5.01,0.00,29.5,25.5,00.0,38.5,30.9,14.5,0000.0,0036.14,0010.16,0006.16
2022-04-21 22:48:00,,0818.6,5.00,0.00,29.4,26.0,00.0,38.5,30.9,14.6,0000.0,0037.21,0010.17,0006.19
2022-04-21 22:49:00,,0818.6,4.99,0.00,29.4,26.5,00.0,38.4,31.1,14.5,0000.0,0036.56,0010.24,0006.21
2022-04-21 22:50:00,,0818.5,5.00,0.00,29.4,27.0,00.0,38.4,31.2,14.5,0000.0,0036.15,0010.34,0006.24
2022-04-21 22:51:00,,0818.5,4.99,0.00,29.5,27.5,00.0,38.4,31.3,14.5,0000.0,0036.01,0010.39,0006.26
2022-04-21 22:52:00,,0818.4,5.00,0.00,29.5,27.8,00.0,38.4,31.4,14.5,0000.0,0036.81,0010.39,0006.27
2022-04-21 22:53:00,,0818.5,4.99,0.00,29.6,28.2,00.0,38.4,31.5,14.4,0000.8,0036.83,0010.37,0006.29
2022-04-21 22:54:00,,0818.5,4.99,0.00,29.6,28.4,00.0,38.4,31.5,14.5,0001.6,0037.66,0010.41,0006.30
2022-04-21 22:55:00,,0818.5,5.02,0.00,29.7,28.6,00.0,38.4,31.6,14.6,0002.4,0037.59,0010.33,0006.28
2022-04-21 22:56:00,,0818.5,5.00,0.00,29.7,28.8,00.0,38.5,31.7,14.4,0002.4,0036.33,0010.25,0006.27
2022-04-21 22:57:00,,0818.5,4.99,0.00,29.8,28.9,00.0,38.5,31.7,14.4,0001.6,0036.12,0010.15,0006.28
2022-04-21 22:58:00,,0818.5,4.99,0.00,29.8,29.1,00.0,38.5,31.8,14.1,0001.3,0036.42,0010.18,0006.28
2022-04-21 22:59:00,,0818.5,5.01,0.00,29.8,27.9,00.0,38.6,31.5,14.0,0001.4,0034.75,0010.11,0006.28
